Regional Weather Roundup
Issued by NWS

Home | Current Version | Previous Version | Graphics & Text | Print | Product List | Glossary Off
Versions: 1 2 3 4 5 6 7 8 9 10 11 12 13 14 15 16 17 18 19 20 21 22 23 24 25 26 27 28 29 30 31 32 33 34 35 36 37 38 39 40 41 42 43 44 45 46 47 48 49 50

000
ASUS43 KLOT 050621
RWRIL

ILLINOIS REGIONAL WEATHER ROUNDUP
NATIONAL WEATHER SERVICE CHICAGO/ROMEOVILLE IL
100 AM CDT SUN JUL 05 2015

NOTE: "FAIR" INDICATES FEW OR NO CLOUDS BELOW 12,000 FEET WITH NO
SIGNIFICANT WEATHER AND/OR OBSTRUCTIONS TO VISIBILITY.

* THESE STATIONS ARE NOT UNDER NWS QUALITY CONTROL. THEY ALSO MAY NOT
  REPORT WEATHER SUCH AS PRECIPITATION OR FOG.

ILZ001-002-007-009-015-016-024-050700-
NORTHWEST ILLINOIS

CITY           SKY/WX    TMP DP  RH WIND       PRES   REMARKS
MOLINE         CLEAR     64  60  87 CALM      30.02S
6HR MIN TEMP:  64; 6HR MAX TEMP:  78;

STERLING*      CLEAR     61  59  94 CALM      30.04R
SAVANNA*       CLEAR     63  60  90 SE3       30.02S
$$

ILZ003-004-008-010-011-017-018-050700-
NORTH CENTRAL ILLINOIS

CITY           SKY/WX    TMP DP  RH WIND       PRES   REMARKS
ROCKFORD       CLEAR     65  60  84 CALM      30.04S
6HR MIN TEMP:  64; 6HR MAX TEMP:  78;

FREEPORT*      CLEAR     61  58  91 S6        30.05R
ROCHELLE*      CLEAR     61  59  94 CALM      30.04S
DE KALB*       CLEAR     62  58  87 CALM      30.05S
PERU*          CLEAR     67  60  76 S5        30.04R
$$

ILZ005-006-012>014-019>023-050700-
NORTHEAST ILLINOIS

CITY           SKY/WX    TMP DP  RH WIND       PRES   REMARKS
CHICAGO-OHARE  PTCLDY    67  56  67 SE5       30.03S SMOKE
6HR MIN TEMP:  65; 6HR MAX TEMP:  79;

CHICAGO-MIDWAY PTCLDY    71  58  63 CALM      30.03S SMOKE
6HR MIN TEMP:  71; 6HR MAX TEMP:  79;

AURORA         CLEAR     64  59  83 CALM      30.04R HAZE
6HR MIN TEMP:  63; 6HR MAX TEMP:  79;

LANSING*         N/A     63  59  86 SE3       30.04S FOG
JOLIET*          N/A     63  62  96 CALM      30.04R FOG
WAUKEGAN       CLEAR     61  56  83 SW3       30.03S HAZE
6HR MIN TEMP:  59; 6HR MAX TEMP:  71;

DUPAGE AIRPORT CLEAR     64  59  83 CALM      30.04R
6HR MIN TEMP:  64; 6HR MAX TEMP:  77;

KANKAKEE*      CLEAR     64  63  96 CALM      30.05S FOG
WHEELING       CLEAR     64  57  78 CALM      30.05R HAZE
6HR MIN TEMP:  64; 6HR MAX TEMP:  77;

MORRIS*        CLEAR     66  60  83 CALM      30.01S
ROMEOVILLE*    CLEAR     64  59  83 CALM      30.04S HAZE
NORTHERLY ISL    N/A     64  60  87 CALM        N/A
$$

LMZ740>746-050700-
SOUTHERN LAKE MICHIGAN

STATION/POSITION SKY/WX   TEMP    WIND        PRES    VSBY  WAVE
                          AIR SEA DIR/SP/G                  HT/PER
                          (F)     (DEG/KT/KT) (MB)    (MI)  (FT/S)
HARRISON CRIB              68     150/  3/  4   N/A
BURNHAM HARBOR             64        CALM       N/A
CALUMET HARBOR             67        CALM       N/A
BURNS HARBOR               71     180/  4/  6 1017.6S
MICHIGAN CITY              69     130/  9/ 11   N/A
MICHIGAN CITY 6N           65 64  160/  4/  4   N/A           0
ST. JOSEPH                 66 64                N/A           0
$$

ILZ025>027-034>036-040-047-049-050-058-095>099-050700-
WEST-CENTRAL ILLINOIS

CITY           SKY/WX    TMP DP  RH WIND       PRES   REMARKS
QUINCY         CLEAR     68  63  84 SE5       30.03S
GALESBURG*     CLEAR     62  61  96 CALM      30.04S
MACOMB*        CLEAR     62  61  97 CALM      30.05S
JACKSONVILLE*  CLEAR     68  65  89 SE5       30.05R
PITTSFIELD*    CLEAR     67  65  90 CALM      30.05S
$$

ILZ028>032-037-038-041>044-048-051>054-059>061-050700-
CENTRAL ILLINOIS

CITY           SKY/WX    TMP DP  RH WIND       PRES   REMARKS
PONTIAC        CLEAR     63  62  98 CALM      30.05S FOG
BLOOMINGTON    CLEAR     66  62  87 S6        30.06S
DECATUR        CLEAR     63  60  90 CALM      30.05S
PEORIA         CLEAR     68  62  81 CALM      30.04R HAZE
6HR MIN TEMP:  67; 6HR MAX TEMP:  80;

LACON*         CLEAR     64  60  88 CALM      30.03R
LINCOLN*       CLEAR     65  62  89 CALM      30.05S
SPRINGFIELD    CLEAR     69  63  81 SE3       30.05R HAZE
6HR MIN TEMP:  68; 6HR MAX TEMP:  81;

TAYLORVILLE    CLEAR     61  61 100 CALM      30.05S FOG
$$

ILZ033-039-045-046-055>057-062-063-050700-
EAST-CENTRAL ILLINOIS

CITY           SKY/WX    TMP DP  RH WIND       PRES   REMARKS
CHAMPAIGN      CLEAR     62  59  90 CALM      30.06R
DANVILLE*      CLEAR     60  59  97 CALM      30.04R FOG
RANTOUL*       CLEAR     66  64  91 CALM      30.05F
MATTOON        CLEAR     66  62  87 CALM      30.04F
PARIS*         PTCLDY    62  61  98 CALM      30.06S
$$

ILZ079-100>102-050700-
SOUTHWEST ILLINOIS

CITY           SKY/WX    TMP DP  RH WIND       PRES   REMARKS
ALTON          CLEAR     65  65 100 CALM      30.05R FOG
BELLEVILLE     CLEAR     66  66 100 CALM      30.03S
CAHOKIA*       CLEAR     68  64  87 CALM      30.04R
SPARTA*        CLOUDY    68  65  88 CALM      30.05S
$$

ILZ064>066-069>071-074>076-080>082-084>086-088>090-092>094-050700-
SOUTH-CENTRAL ILLINOIS

CITY           SKY/WX    TMP DP  RH WIND       PRES   REMARKS
CARBONDALE     FOG       69  68  96 CALM      30.03S VSB 3/4
6HR MIN TEMP:  68; 6HR MAX TEMP:  79;

CAIRO*         MOCLDY    71  71 100 CALM      30.03R FOG
EFFINGHAM*     PTCLDY    65  62  91 CALM      30.06S FOG
MARION           N/A     68  68 100 CALM      30.04S FOG
MT. VERNON       N/A     64  61  88 CALM      30.05S VSB 3/4
CENTRALIA*     PTCLDY    65  63  93 CALM      30.05R FOG
SALEM*         PTCLDY    67  64  91 CALM      30.05S
$$

ILZ067-068-072-073-078-083-087-091-050700-
SOUTHEAST ILLINOIS

CITY           SKY/WX    TMP DP  RH WIND       PRES   REMARKS
LAWRENCEVILLE  MOCLDY    68  66  93 NE6       30.03F FOG
FLORA*         MOCLDY    66  65  97 NW7       30.04F FOG
FAIRFIELD*     MOCLDY    68  67  98 CALM      30.02F FOG
HARRISBURG*    CLOUDY    68  68 100 NW3       30.04S FOG
ROBINSON*      MOCLDY    66  65  97 CALM      30.05S FOG
CARMI*         CLOUDY    69  64  84 CALM      30.02S HAZE
$$

ABBREVIATIONS USED IN REMARKS
   TC - TEMPERATURE IN CELSIUS
  WCI - WIND CHILL INDEX
   HX - HEAT INDEX
  VSB - VISIBILITY
$$




USA.gov is the U.S. government's official web portal to all federal, state and local government web resources and services.